N2DJ Weather Reports


Display with metric or nautical units.
time (UTC)temp
F
wind
direction
speed
MPH
gust
MPH
rain 1hr
in
rain 24hr
in
rain mn
in
humidity
%
barometer
mb
20260509071549 37 205 0.0 0.0 0.00 0.12 0.00 92 1009.2
20260509070047 37 205 0.0 0.0 0.00 0.12 0.00 91 1009.1
20260509064546 38 205 0.0 0.0 0.00 0.12 0.00 91 1009.3
20260509063043 38 205 0.0 0.0 0.00 0.12 0.00 91 1009.3
20260509061545 38 205 0.0 0.0 0.00 0.12 0.00 91 1009.7
20260509060042 38 205 0.0 0.0 0.00 0.12 0.00 90 1010.0
20260509054539 38 205 0.0 0.0 0.00 0.12 0.00 90 1010.2
20260509053053 38 205 0.0 0.0 0.00 0.12 0.00 90 1010.2
20260509051533 39 205 0.0 0.0 0.00 0.12 0.00 90 1010.2
20260509050032 39 205 0.0 0.0 0.00 0.12 0.00 90 1010.5
20260509044529 39 205 0.0 0.0 0.00 0.12 0.00 90 1010.7
20260509043027 39 205 0.0 0.0 0.00 0.12 0.00 89 1010.9
20260509041535 39 205 0.0 0.0 0.00 0.12 0.00 88 1011.0
20260509040022 40 205 0.0 0.0 0.00 0.13 0.12 86 1011.0
20260509034522 40 205 0.0 0.0 0.00 0.13 0.12 85 1011.1
20260509033021 41 205 0.0 0.0 0.00 0.13 0.12 83 1011.2
20260509031521 42 205 0.0 0.0 0.00 0.13 0.12 80 1011.4
20260509030021 42 205 0.0 2.0 0.00 0.14 0.12 77 1011.4
20260509024520 43 205 0.0 0.0 0.00 0.14 0.12 73 1011.4
20260509023019 43 205 0.0 3.0 0.00 0.14 0.12 72 1011.5
20260509021520 42 228 1.0 4.0 0.00 0.14 0.12 76 1011.4
20260509020022 43 225 0.0 0.0 0.00 0.19 0.12 73 1011.4
20260509014519 44 225 0.0 0.0 0.00 0.19 0.12 71 1011.2
20260509013018 45 225 0.0 0.0 0.00 0.19 0.12 67 1011.1
20260509011524 46 225 0.0 0.0 0.00 0.19 0.12 67 1011.1
20260509010034 47 225 0.0 2.0 0.00 0.26 0.12 62 1011.1
20260509004525 48 225 0.0 0.0 0.00 0.26 0.12 57 1011.1
20260509003017 50 225 0.0 0.0 0.00 0.26 0.12 54 1011.0
20260509001516 52 234 0.0 2.0 0.00 0.26 0.12 49 1010.8
20260509000017 53 202 0.0 4.0 0.00 0.38 0.12 45 1010.7
20260508234522 53 202 1.0 5.0 0.00 0.38 0.12 44 1010.8
20260508233015 54 208 1.0 6.0 0.00 0.38 0.12 44 1010.8
20260508231513 54 194 2.0 8.0 0.00 0.38 0.12 45 1010.7
20260508230023 55 207 0.0 7.0 0.00 0.38 0.12 45 1010.7
20260508224515 55 215 2.0 8.0 0.00 0.38 0.12 46 1010.8
20260508223010 55 205 1.0 8.0 0.00 0.38 0.12 46 1010.8
20260508221525 55 245 1.0 7.0 0.00 0.38 0.12 46 1010.8
20260508220008 56 225 3.0 10.0 0.00 0.38 0.12 46 1010.9
20260508214508 55 243 1.0 4.0 0.00 0.38 0.12 47 1010.8
20260508213015 56 232 2.0 6.0 0.00 0.38 0.12 44 1010.8
20260508211508 56 248 0.0 4.0 0.00 0.38 0.12 45 1010.8
20260508210005 56 285 1.0 12.0 0.00 0.38 0.12 44 1010.8
20260508204510 57 277 5.0 10.0 0.00 0.38 0.12 42 1010.9
20260508203006 56 305 1.0 9.0 0.00 0.38 0.12 46 1011.0
20260508201500 56 248 1.0 8.0 0.00 0.38 0.12 51 1011.2
20260508194557 54 25 1.0 4.0 0.00 0.38 0.12 57 1011.5
20260508193102 54 193 0.0 6.0 0.00 0.38 0.12 59 1011.8
20260508191557 55 186 3.0 8.0 0.00 0.38 0.12 57 1012.1
20260508190053 54 85 1.0 6.0 0.00 0.38 0.12 55 1012.2
20260508184551 55 209 3.0 7.0 0.00 0.38 0.12 56 1012.2
20260508183052 55 211 3.0 8.0 0.00 0.38 0.12 56 1012.3
20260508181548 54 290 1.0 5.0 0.00 0.38 0.12 56 1012.3
20260508180046 54 300 1.0 9.0 0.00 0.38 0.12 55 1012.4
20260508174544 53 114 2.0 10.0 0.00 0.38 0.12 55 1012.5
20260508173044 53 165 1.0 8.0 0.00 0.38 0.12 56 1012.6
20260508171550 53 288 3.0 11.0 0.00 0.38 0.12 59 1012.8
20260508170039 52 242 2.0 7.0 0.00 0.38 0.12 59 1012.9
20260508164538 51 309 2.0 7.0 0.00 0.38 0.12 62 1013.0
20260508163036 51 313 1.0 9.0 0.00 0.38 0.12 62 1013.2
20260508161534 51 284 1.0 8.0 0.00 0.38 0.12 66 1013.3
20260508160033 50 266 3.0 10.0 0.00 0.38 0.12 67 1013.4
20260508154531 50 286 2.0 7.0 0.00 0.38 0.12 74 1013.3
20260508153025 48 296 2.0 7.0 0.00 0.38 0.12 75 1013.5
20260508151524 48 212 2.0 9.0 0.00 0.38 0.12 82 1013.7
20260508150017 46 242 2.0 9.0 0.00 0.38 0.12 82 1013.6
20260508144515 46 201 1.0 5.0 0.00 0.38 0.12 85 1013.5
20260508143014 46 232 2.0 5.0 0.00 0.38 0.12 87 1013.5
20260508141511 44 234 0.0 5.0 0.00 0.38 0.12 91 1013.4
20260508140007 43 196 0.0 4.0 0.00 0.38 0.12 95 1013.5
20260508134506 43 244 0.0 3.0 0.00 0.38 0.12 95 1013.6
20260508133004 42 242 0.0 2.0 0.00 0.38 0.12 96 1013.6
20260508131502 42 245 0.0 1.0 0.00 0.38 0.12 96 1013.8
20260508130112 41 244 0.0 2.0 0.00 0.38 0.12 97 1013.6
20260508124555 41 244 0.0 1.0 0.01 0.38 0.12 97 1013.5
20260508123103 40 244 0.0 0.0 0.02 0.38 0.12 97 1013.3
20260508121602 40 244 0.0 0.0 0.05 0.38 0.12 97 1013.5
20260508120051 40 244 0.0 0.0 0.08 0.38 0.12 97 1013.5
20260508114549 39 244 0.0 1.0 0.09 0.37 0.11 97 1013.5
20260508113049 39 244 0.0 3.0 0.09 0.36 0.10 97 1013.5
20260508111547 40 252 0.0 2.0 0.06 0.33 0.07 97 1013.4
20260508110047 40 252 1.0 5.0 0.04 0.30 0.04 97 1013.1
20260508104615 40 240 0.0 0.0 0.02 0.28 0.02 97 1012.7
20260508103047 41 240 0.0 1.0 0.01 0.27 0.01 97 1012.7
20260508101549 41 294 0.0 2.0 0.01 0.27 0.01 97 1012.4
20260508100044 41 297 0.0 2.0 0.00 0.26 0.00 97 1012.2
20260508094547 41 298 0.0 0.0 0.00 0.26 0.00 97 1012.3
20260508093043 41 297 0.0 1.0 0.00 0.26 0.00 97 1012.0
20260508091541 41 298 0.0 0.0 0.00 0.26 0.00 97 1012.4
20260508090052 41 298 0.0 0.0 0.00 0.26 0.00 97 1012.2
20260508084540 41 298 0.0 0.0 0.00 0.26 0.00 97 1012.5
20260508083056 41 298 0.0 0.0 0.00 0.26 0.00 97 1012.5
20260508081552 41 298 0.0 2.0 0.00 0.26 0.00 97 1012.5
20260508080036 40 298 0.0 3.0 0.00 0.26 0.00 97 1012.4
20260508074534 40 355 0.0 0.0 0.00 0.26 0.00 97 1012.4
20260508073032 39 355 0.0 0.0 0.00 0.26 0.00 97 1012.4